Wetterdaten: Donnerstag, 20.06.2013
Datum Zeit Temperatur Luftfeuchte Luftdruck Regen Wind Richtung Richtung Sonnenschein ET UV Solar Taupunkt Windchill Windben
20.06.2013 00:00 24,8 C 80 % 1008,8 hPa 0,0 l/m 0,0 km/h (0 Bft) W-NW 286 0 min 0,000 mm 0,0 UV-I 0 W/m 21,1 C 24,8 C 0,0 km/h (0 Bft)
20.06.2013 00:05 24,6 C 80 % 1008,7 hPa 0,0 l/m 0,0 km/h (0 Bft) W-NW 286 0 min 0,000 mm 0,0 UV-I 0 W/m 20,9 C 24,6 C 0,0 km/h (0 Bft)
20.06.2013 00:10 24,4 C 81 % 1008,8 hPa 0,0 l/m 0,0 km/h (0 Bft) W-NW 286 0 min 0,000 mm 0,0 UV-I 0 W/m 20,9 C 24,4 C 0,0 km/h (0 Bft)
20.06.2013 00:15 24,3 C 81 % 1008,8 hPa 0,0 l/m 0,0 km/h (0 Bft) W-NW 286 0 min 0,000 mm 0,0 UV-I 0 W/m 20,8 C 24,3 C 0,0 km/h (0 Bft)
20.06.2013 00:20 24,1 C 82 % 1008,7 hPa 0,0 l/m 0,0 km/h (0 Bft) W-NW 286 0 min 0,000 mm 0,0 UV-I 0 W/m 20,8 C 24,1 C 0,0 km/h (0 Bft)
20.06.2013 00:25 23,9 C 82 % 1008,6 hPa 0,0 l/m 0,0 km/h (0 Bft) W-NW 286 0 min 0,000 mm 0,0 UV-I 0 W/m 20,6 C 23,9 C 0,0 km/h (0 Bft)
20.06.2013 00:30 23,8 C 83 % 1008,7 hPa 0,0 l/m 0,0 km/h (0 Bft) W-NW 286 0 min 0,000 mm 0,0 UV-I 0 W/m 20,7 C 23,8 C 1,6 km/h (1 Bft)
20.06.2013 00:35 23,7 C 84 % 1008,7 hPa 0,0 l/m 0,0 km/h (0 Bft) W-NW 286 0 min 0,000 mm 0,0 UV-I 0 W/m 20,8 C 23,7 C 0,0 km/h (0 Bft)
20.06.2013 00:40 23,6 C 83 % 1008,5 hPa 0,0 l/m 0,0 km/h (0 Bft) W-NW 286 0 min 0,000 mm 0,0 UV-I 0 W/m 20,5 C 23,6 C 0,0 km/h (0 Bft)
20.06.2013 00:45 23,4 C 85 % 1008,6 hPa 0,0 l/m 0,6 km/h (0 Bft) W 279 0 min 0,000 mm 0,0 UV-I 0 W/m 20,7 C 23,4 C 4,8 km/h (1 Bft)
20.06.2013 00:50 23,2 C 86 % 1008,6 hPa 0,0 l/m 2,9 km/h (1 Bft) W 268 0 min 0,000 mm 0,0 UV-I 0 W/m 20,7 C 23,2 C 9,7 km/h (2 Bft)
20.06.2013 00:55 22,9 C 87 % 1008,8 hPa 0,0 l/m 6,0 km/h (2 Bft) W 271 0 min 0,000 mm 0,0 UV-I 0 W/m 20,6 C 22,9 C 11,3 km/h (2 Bft)
20.06.2013 01:00 22,8 C 88 % 1008,8 hPa 0,0 l/m 7,6 km/h (2 Bft) SW 235 0 min 0,000 mm 0,0 UV-I 0 W/m 20,7 C 22,4 C 14,5 km/h (3 Bft)
20.06.2013 01:05 22,8 C 88 % 1008,9 hPa 0,0 l/m 8,3 km/h (2 Bft) W 267 0 min 0,025 mm 0,0 UV-I 0 W/m 20,7 C 22,2 C 12,9 km/h (3 Bft)
20.06.2013 01:10 23,0 C 88 % 1009,1 hPa 0,0 l/m 8,4 km/h (2 Bft) W-NW 288 0 min 0,000 mm 0,0 UV-I 0 W/m 20,9 C 22,4 C 11,3 km/h (2 Bft)
20.06.2013 01:15 23,2 C 87 % 1009,3 hPa 0,0 l/m 8,9 km/h (2 Bft) W-SW 252 0 min 0,000 mm 0,0 UV-I 0 W/m 20,9 C 22,5 C 19,3 km/h (3 Bft)
20.06.2013 01:20 23,6 C 85 % 1009,4 hPa 0,0 l/m 6,4 km/h (2 Bft) SW 231 0 min 0,000 mm 0,0 UV-I 0 W/m 20,9 C 23,6 C 12,9 km/h (3 Bft)
20.06.2013 01:25 23,7 C 85 % 1009,5 hPa 0,0 l/m 6,5 km/h (2 Bft) W 259 0 min 0,000 mm 0,0 UV-I 0 W/m 21,0 C 23,7 C 12,9 km/h (3 Bft)
20.06.2013 01:30 23,8 C 85 % 1009,4 hPa 0,0 l/m 6,3 km/h (2 Bft) W-NW 291 0 min 0,000 mm 0,0 UV-I 0 W/m 21,1 C 23,8 C 14,5 km/h (3 Bft)
20.06.2013 01:35 23,8 C 84 % 1009,5 hPa 0,0 l/m 6,3 km/h (2 Bft) W 269 0 min 0,000 mm 0,0 UV-I 0 W/m 20,9 C 23,8 C 11,3 km/h (2 Bft)
20.06.2013 01:40 23,8 C 85 % 1009,5 hPa 0,0 l/m 5,5 km/h (1 Bft) W-NW 290 0 min 0,000 mm 0,0 UV-I 0 W/m 21,1 C 23,8 C 11,3 km/h (2 Bft)
20.06.2013 01:45 23,7 C 85 % 1009,5 hPa 0,0 l/m 4,9 km/h (1 Bft) W-NW 298 0 min 0,000 mm 0,0 UV-I 0 W/m 21,0 C 23,7 C 11,3 km/h (2 Bft)
20.06.2013 01:50 23,7 C 85 % 1009,4 hPa 0,0 l/m 6,2 km/h (2 Bft) W-NW 289 0 min 0,000 mm 0,0 UV-I 0 W/m 21,0 C 23,7 C 11,3 km/h (2 Bft)
20.06.2013 01:55 23,7 C 85 % 1009,5 hPa 0,0 l/m 5,7 km/h (1 Bft) W-NW 292 0 min 0,000 mm 0,0 UV-I 0 W/m 21,0 C 23,7 C 9,7 km/h (2 Bft)
20.06.2013 02:00 23,7 C 85 % 1009,5 hPa 0,0 l/m 7,3 km/h (2 Bft) NW 312 0 min 0,000 mm 0,0 UV-I 0 W/m 21,0 C 23,4 C 14,5 km/h (3 Bft)
20.06.2013 02:05 23,6 C 85 % 1009,6 hPa 0,0 l/m 7,6 km/h (2 Bft) W 265 0 min 0,026 mm 0,0 UV-I 0 W/m 20,9 C 23,2 C 12,9 km/h (3 Bft)
20.06.2013 02:10 23,5 C 85 % 1009,4 hPa 0,0 l/m 5,9 km/h (2 Bft) W-NW 286 0 min 0,000 mm 0,0 UV-I 0 W/m 20,8 C 23,5 C 11,3 km/h (2 Bft)
20.06.2013 02:15 23,4 C 86 % 1009,5 hPa 0,0 l/m 6,5 km/h (2 Bft) W-NW 288 0 min 0,000 mm 0,0 UV-I 0 W/m 20,9 C 23,4 C 11,3 km/h (2 Bft)
20.06.2013 02:20 23,4 C 86 % 1009,5 hPa 0,0 l/m 6,3 km/h (2 Bft) W-NW 283 0 min 0,000 mm 0,0 UV-I 0 W/m 20,9 C 23,4 C 11,3 km/h (2 Bft)
20.06.2013 02:25 23,3 C 86 % 1009,8 hPa 0,0 l/m 6,6 km/h (2 Bft) W-SW 256 0 min 0,000 mm 0,0 UV-I 0 W/m 20,8 C 23,2 C 12,9 km/h (3 Bft)
20.06.2013 02:30 23,3 C 86 % 1009,7 hPa 0,0 l/m 6,9 km/h (2 Bft) W-NW 303 0 min 0,000 mm 0,0 UV-I 0 W/m 20,8 C 23,1 C 12,9 km/h (3 Bft)
20.06.2013 02:35 23,2 C 86 % 1009,9 hPa 0,0 l/m 4,3 km/h (1 Bft) W-NW 303 0 min 0,000 mm 0,0 UV-I 0 W/m 20,7 C 23,2 C 9,7 km/h (2 Bft)
20.06.2013 02:40 23,2 C 86 % 1009,8 hPa 0,0 l/m 4,3 km/h (1 Bft) W-NW 289 0 min 0,000 mm 0,0 UV-I 0 W/m 20,7 C 23,2 C 8,0 km/h (2 Bft)
20.06.2013 02:45 23,1 C 86 % 1009,9 hPa 0,0 l/m 5,0 km/h (1 Bft) W 279 0 min 0,000 mm 0,0 UV-I 0 W/m 20,6 C 23,1 C 9,7 km/h (2 Bft)
20.06.2013 02:50 23,0 C 86 % 1010,1 hPa 0,0 l/m 6,5 km/h (2 Bft) W-NW 290 0 min 0,000 mm 0,0 UV-I 0 W/m 20,5 C 23,0 C 11,3 km/h (2 Bft)
20.06.2013 02:55 22,9 C 87 % 1010,1 hPa 0,0 l/m 6,3 km/h (2 Bft) W 262 0 min 0,000 mm 0,0 UV-I 0 W/m 20,6 C 22,9 C 12,9 km/h (3 Bft)
20.06.2013 03:00 22,9 C 86 % 1010,0 hPa 0,0 l/m 7,9 km/h (2 Bft) W 267 0 min 0,000 mm 0,0 UV-I 0 W/m 20,4 C 22,4 C 20,9 km/h (4 Bft)
20.06.2013 03:05 22,9 C 86 % 1010,1 hPa 0,0 l/m 5,1 km/h (1 Bft) W-NW 297 0 min 0,025 mm 0,0 UV-I 0 W/m 20,4 C 22,9 C 12,9 km/h (3 Bft)
20.06.2013 03:10 22,8 C 86 % 1010,1 hPa 0,0 l/m 7,3 km/h (2 Bft) W 260 0 min 0,000 mm 0,0 UV-I 0 W/m 20,3 C 22,5 C 14,5 km/h (3 Bft)
20.06.2013 03:15 22,7 C 86 % 1010,1 hPa 0,0 l/m 6,1 km/h (2 Bft) W 277 0 min 0,000 mm 0,0 UV-I 0 W/m 20,2 C 22,7 C 12,9 km/h (3 Bft)
20.06.2013 03:20 22,6 C 87 % 1010,1 hPa 0,0 l/m 5,1 km/h (1 Bft) W 273 0 min 0,000 mm 0,0 UV-I 0 W/m 20,3 C 22,6 C 12,9 km/h (3 Bft)
20.06.2013 03:25 22,5 C 87 % 1010,1 hPa 0,0 l/m 5,1 km/h (1 Bft) W-SW 241 0 min 0,000 mm 0,0 UV-I 0 W/m 20,2 C 22,5 C 11,3 km/h (2 Bft)
20.06.2013 03:30 22,4 C 87 % 1010,0 hPa 0,0 l/m 5,4 km/h (1 Bft) W-NW 289 0 min 0,000 mm 0,0 UV-I 0 W/m 20,1 C 22,4 C 11,3 km/h (2 Bft)
20.06.2013 03:35 22,4 C 86 % 1010,0 hPa 0,0 l/m 2,6 km/h (1 Bft) W 268 0 min 0,000 mm 0,0 UV-I 0 W/m 19,9 C 22,4 C 8,0 km/h (2 Bft)
20.06.2013 03:40 22,4 C 86 % 1009,8 hPa 0,0 l/m 0,7 km/h (0 Bft) W-NW 288 0 min 0,000 mm 0,0 UV-I 0 W/m 19,9 C 22,4 C 4,8 km/h (1 Bft)
20.06.2013 03:45 22,3 C 86 % 1009,8 hPa 0,0 l/m 2,7 km/h (1 Bft) W-NW 296 0 min 0,000 mm 0,0 UV-I 0 W/m 19,8 C 22,3 C 6,4 km/h (2 Bft)
20.06.2013 03:50 22,3 C 87 % 1009,9 hPa 0,0 l/m 3,1 km/h (1 Bft) W 277 0 min 0,000 mm 0,0 UV-I 0 W/m 20,0 C 22,3 C 9,7 km/h (2 Bft)
20.06.2013 03:55 22,2 C 87 % 1009,9 hPa 0,0 l/m 6,6 km/h (2 Bft) NW 304 0 min 0,000 mm 0,0 UV-I 0 W/m 19,9 C 22,1 C 12,9 km/h (3 Bft)
20.06.2013 04:00 22,2 C 87 % 1009,8 hPa 0,0 l/m 4,2 km/h (1 Bft) W-SW 243 0 min 0,000 mm 0,0 UV-I 0 W/m 19,9 C 22,2 C 9,7 km/h (2 Bft)
20.06.2013 04:05 22,2 C 87 % 1009,9 hPa 0,0 l/m 6,3 km/h (2 Bft) W-NW 303 0 min 0,026 mm 0,0 UV-I 0 W/m 19,9 C 22,2 C 11,3 km/h (2 Bft)
20.06.2013 04:10 22,2 C 87 % 1009,9 hPa 0,0 l/m 4,8 km/h (1 Bft) W 276 0 min 0,000 mm 0,0 UV-I 0 W/m 19,9 C 22,2 C 9,7 km/h (2 Bft)
20.06.2013 04:15 22,1 C 87 % 1010,1 hPa 0,0 l/m 6,9 km/h (2 Bft) W-NW 286 0 min 0,000 mm 0,0 UV-I 0 W/m 19,8 C 21,9 C 12,9 km/h (3 Bft)
20.06.2013 04:20 22,1 C 87 % 1010,1 hPa 0,0 l/m 7,3 km/h (2 Bft) W-NW 290 0 min 0,000 mm 0,0 UV-I 0 W/m 19,8 C 21,8 C 12,9 km/h (3 Bft)
20.06.2013 04:25 22,0 C 87 % 1010,0 hPa 0,0 l/m 4,8 km/h (1 Bft) W-NW 299 0 min 0,000 mm 0,0 UV-I 0 W/m 19,7 C 22,0 C 8,0 km/h (2 Bft)
20.06.2013 04:30 21,9 C 87 % 1010,1 hPa 0,0 l/m 5,4 km/h (1 Bft) W 272 0 min 0,000 mm 0,0 UV-I 0 W/m 19,6 C 21,9 C 9,7 km/h (2 Bft)
20.06.2013 04:35 21,9 C 87 % 1009,9 hPa 0,0 l/m 3,2 km/h (1 Bft) W-NW 298 0 min 0,000 mm 0,0 UV-I 0 W/m 19,6 C 21,9 C 8,0 km/h (2 Bft)
20.06.2013 04:40 21,8 C 88 % 1009,9 hPa 0,0 l/m 3,3 km/h (1 Bft) W-NW 296 0 min 0,000 mm 0,0 UV-I 0 W/m 19,7 C 21,8 C 8,0 km/h (2 Bft)
20.06.2013 04:45 21,7 C 88 % 1010,0 hPa 0,0 l/m 3,8 km/h (1 Bft) W-NW 297 0 min 0,000 mm 0,0 UV-I 0 W/m 19,6 C 21,7 C 6,4 km/h (2 Bft)
20.06.2013 04:50 21,7 C 88 % 1010,1 hPa 0,0 l/m 2,0 km/h (1 Bft) W-NW 294 0 min 0,000 mm 0,0 UV-I 0 W/m 19,6 C 21,7 C 6,4 km/h (2 Bft)
20.06.2013 04:55 21,6 C 88 % 1010,1 hPa 0,0 l/m 1,2 km/h (1 Bft) W-NW 294 0 min 0,000 mm 0,0 UV-I 0 W/m 19,5 C 21,6 C 4,8 km/h (1 Bft)
20.06.2013 05:00 21,5 C 88 % 1010,0 hPa 0,0 l/m 0,3 km/h (0 Bft) W-NW 294 0 min 0,000 mm 0,0 UV-I 0 W/m 19,4 C 21,5 C 1,6 km/h (1 Bft)
20.06.2013 05:05 21,4 C 88 % 1010,1 hPa 0,0 l/m 0,0 km/h (0 Bft) W-NW 294 0 min 0,025 mm 0,0 UV-I 0 W/m 19,3 C 21,4 C 0,0 km/h (0 Bft)
20.06.2013 05:10 21,3 C 89 % 1010,1 hPa 0,0 l/m 0,0 km/h (0 Bft) W-NW 294 0 min 0,000 mm 0,0 UV-I 0 W/m 19,4 C 21,3 C 1,6 km/h (1 Bft)
20.06.2013 05:15 21,2 C 89 % 1010,1 hPa 0,0 l/m 2,0 km/h (1 Bft) W-NW 286 0 min 0,000 mm 0,0 UV-I 0 W/m 19,3 C 21,2 C 4,8 km/h (1 Bft)
20.06.2013 05:20 21,1 C 89 % 1010,2 hPa 0,0 l/m 0,0 km/h (0 Bft) W-NW 286 0 min 0,000 mm 0,0 UV-I 0 W/m 19,2 C 21,1 C 0,0 km/h (0 Bft)
20.06.2013 05:25 21,1 C 89 % 1010,3 hPa 0,0 l/m 0,0 km/h (0 Bft) W-NW 286 0 min 0,000 mm 0,0 UV-I 5 W/m 19,2 C 21,1 C 0,0 km/h (0 Bft)
20.06.2013 05:30 21,0 C 89 % 1010,3 hPa 0,0 l/m 0,0 km/h (0 Bft) W-NW 286 0 min 0,000 mm 0,0 UV-I 7 W/m 19,1 C 21,0 C 0,0 km/h (0 Bft)
20.06.2013 05:35 21,0 C 90 % 1010,3 hPa 0,0 l/m 0,0 km/h (0 Bft) W-NW 286 0 min 0,000 mm 0,0 UV-I 11 W/m 19,3 C 21,0 C 1,6 km/h (1 Bft)
20.06.2013 05:40 20,9 C 90 % 1010,4 hPa 0,0 l/m 0,0 km/h (0 Bft) W-NW 286 0 min 0,000 mm 0,0 UV-I 12 W/m 19,2 C 20,9 C 1,6 km/h (1 Bft)
20.06.2013 05:45 20,9 C 90 % 1010,4 hPa 0,0 l/m 0,0 km/h (0 Bft) W-NW 286 0 min 0,000 mm 0,0 UV-I 16 W/m 19,2 C 20,9 C 0,0 km/h (0 Bft)
20.06.2013 05:50 20,8 C 90 % 1010,5 hPa 0,0 l/m 0,3 km/h (0 Bft) W-NW 286 0 min 0,000 mm 0,0 UV-I 19 W/m 19,1 C 20,8 C 3,2 km/h (1 Bft)
20.06.2013 05:55 20,8 C 91 % 1010,5 hPa 0,0 l/m 1,5 km/h (1 Bft) W-SW 252 0 min 0,000 mm 0,0 UV-I 26 W/m 19,3 C 20,8 C 6,4 km/h (2 Bft)
20.06.2013 06:00 20,8 C 91 % 1010,6 hPa 0,0 l/m 1,3 km/h (1 Bft) W 267 0 min 0,000 mm 0,0 UV-I 28 W/m 19,3 C 20,8 C 6,4 km/h (2 Bft)
20.06.2013 06:05 20,8 C 91 % 1010,4 hPa 0,0 l/m 0,6 km/h (0 Bft) W 265 0 min 0,000 mm 0,0 UV-I 30 W/m 19,3 C 20,8 C 3,2 km/h (1 Bft)
20.06.2013 06:10 20,8 C 91 % 1010,4 hPa 0,0 l/m 0,0 km/h (0 Bft) W 265 0 min 0,000 mm 0,0 UV-I 33 W/m 19,3 C 20,8 C 0,0 km/h (0 Bft)
20.06.2013 06:15 20,9 C 91 % 1010,4 hPa 0,0 l/m 0,0 km/h (0 Bft) W 265 0 min 0,000 mm 0,0 UV-I 37 W/m 19,4 C 20,9 C 0,0 km/h (0 Bft)
20.06.2013 06:20 20,9 C 90 % 1010,2 hPa 0,0 l/m 0,0 km/h (0 Bft) W 265 0 min 0,000 mm 0,0 UV-I 44 W/m 19,2 C 20,9 C 1,6 km/h (1 Bft)
20.06.2013 06:25 20,9 C 90 % 1010,3 hPa 0,0 l/m 0,0 km/h (0 Bft) W 265 0 min 0,000 mm 0,0 UV-I 49 W/m 19,2 C 20,9 C 0,0 km/h (0 Bft)
20.06.2013 06:30 20,9 C 91 % 1010,2 hPa 0,0 l/m 1,4 km/h (1 Bft) W-NW 291 0 min 0,000 mm 0,0 UV-I 67 W/m 19,4 C 20,9 C 4,8 km/h (1 Bft)
20.06.2013 06:35 20,9 C 91 % 1010,3 hPa 0,0 l/m 0,3 km/h (0 Bft) W-NW 291 0 min 0,000 mm 0,0 UV-I 70 W/m 19,4 C 20,9 C 1,6 km/h (1 Bft)
20.06.2013 06:40 21,1 C 91 % 1010,3 hPa 0,0 l/m 0,0 km/h (0 Bft) W-NW 291 0 min 0,000 mm 0,0 UV-I 81 W/m 19,6 C 21,1 C 0,0 km/h (0 Bft)
20.06.2013 06:45 21,2 C 90 % 1010,2 hPa 0,0 l/m 0,3 km/h (0 Bft) W-NW 290 0 min 0,000 mm 0,0 UV-I 95 W/m 19,5 C 21,2 C 3,2 km/h (1 Bft)
20.06.2013 06:50 21,2 C 90 % 1010,3 hPa 0,0 l/m 1,1 km/h (1 Bft) W 281 0 min 0,000 mm 0,0 UV-I 97 W/m 19,5 C 21,2 C 4,8 km/h (1 Bft)
20.06.2013 06:55 21,3 C 90 % 1010,2 hPa 0,0 l/m 0,0 km/h (0 Bft) W 281 0 min 0,000 mm 0,0 UV-I 105 W/m 19,6 C 21,3 C 1,6 km/h (1 Bft)
20.06.2013 07:00 21,6 C 90 % 1010,0 hPa 0,0 l/m 0,0 km/h (0 Bft) W 281 0 min 0,000 mm 0,0 UV-I 118 W/m 19,9 C 21,6 C 0,0 km/h (0 Bft)
20.06.2013 07:05 21,8 C 89 % 1010,1 hPa 0,0 l/m 0,2 km/h (0 Bft) W 281 0 min 0,051 mm 0,0 UV-I 121 W/m 19,9 C 21,8 C 1,6 km/h (1 Bft)
20.06.2013 07:10 21,9 C 88 % 1010,1 hPa 0,0 l/m 0,3 km/h (0 Bft) W 281 5 min 0,000 mm 0,0 UV-I 142 W/m 19,8 C 21,9 C 1,6 km/h (1 Bft)
20.06.2013 07:15 22,1 C 87 % 1010,1 hPa 0,0 l/m 1,3 km/h (1 Bft) S-SW 211 0 min 0,000 mm 0,0 UV-I 146 W/m 19,8 C 22,1 C 4,8 km/h (1 Bft)
20.06.2013 07:20 22,2 C 87 % 1010,2 hPa 0,0 l/m 0,8 km/h (0 Bft) S-SW 213 0 min 0,000 mm 0,0 UV-I 146 W/m 19,9 C 22,2 C 4,8 km/h (1 Bft)
20.06.2013 07:25 22,3 C 87 % 1010,3 hPa 0,0 l/m 0,0 km/h (0 Bft) S-SW 213 0 min 0,000 mm 0,0 UV-I 102 W/m 20,0 C 22,3 C 1,6 km/h (1 Bft)
20.06.2013 07:30 22,4 C 85 % 1010,3 hPa 0,0 l/m 0,6 km/h (0 Bft) N 355 0 min 0,000 mm 0,0 UV-I 77 W/m 19,7 C 22,4 C 4,8 km/h (1 Bft)
20.06.2013 07:35 22,6 C 85 % 1010,3 hPa 0,0 l/m 1,6 km/h (1 Bft) O-NO 61 0 min 0,000 mm 0,0 UV-I 74 W/m 19,9 C 22,6 C 4,8 km/h (1 Bft)
20.06.2013 07:40 22,7 C 84 % 1010,4 hPa 0,0 l/m 4,5 km/h (1 Bft) NO 51 0 min 0,000 mm 0,0 UV-I 81 W/m 19,9 C 22,7 C 14,5 km/h (3 Bft)
20.06.2013 07:45 22,7 C 85 % 1010,5 hPa 0,0 l/m 0,9 km/h (0 Bft) O-NO 57 0 min 0,000 mm 0,0 UV-I 62 W/m 20,0 C 22,7 C 4,8 km/h (1 Bft)
20.06.2013 07:50 22,8 C 84 % 1010,5 hPa 0,0 l/m 0,2 km/h (0 Bft) O-NO 57 0 min 0,000 mm 0,0 UV-I 69 W/m 19,9 C 22,8 C 3,2 km/h (1 Bft)
20.06.2013 07:55 22,8 C 84 % 1010,6 hPa 0,0 l/m 1,8 km/h (1 Bft) NO 55 0 min 0,000 mm 0,0 UV-I 58 W/m 19,9 C 22,8 C 6,4 km/h (2 Bft)
20.06.2013 08:00 22,7 C 84 % 1010,5 hPa 0,0 l/m 4,0 km/h (1 Bft) O-NO 67 0 min 0,000 mm 0,0 UV-I 74 W/m 19,9 C 22,7 C 8,0 km/h (2 Bft)
20.06.2013 08:05 22,7 C 84 % 1010,6 hPa 0,0 l/m 4,2 km/h (1 Bft) N 11 0 min 0,051 mm 0,0 UV-I 100 W/m 19,9 C 22,7 C 8,0 km/h (2 Bft)
20.06.2013 08:10 22,7 C 84 % 1010,7 hPa 0,0 l/m 1,3 km/h (1 Bft) O-NO 75 0 min 0,000 mm 0,0 UV-I 123 W/m 19,9 C 22,7 C 4,8 km/h (1 Bft)
20.06.2013 08:15 22,7 C 84 % 1010,7 hPa 0,0 l/m 2,9 km/h (1 Bft) O-NO 59 0 min 0,000 mm 0,5 UV-I 123 W/m 19,9 C 22,7 C 11,3 km/h (2 Bft)
20.06.2013 08:20 22,8 C 84 % 1010,6 hPa 0,0 l/m 2,9 km/h (1 Bft) NO 55 0 min 0,000 mm 0,8 UV-I 179 W/m 19,9 C 22,8 C 8,0 km/h (2 Bft)
20.06.2013 08:25 22,9 C 85 % 1010,6 hPa 0,0 l/m 0,3 km/h (0 Bft) NO 51 0 min 0,000 mm 0,9 UV-I 181 W/m 20,2 C 22,9 C 3,2 km/h (1 Bft)
20.06.2013 08:30 23,1 C 83 % 1010,6 hPa 0,0 l/m 5,2 km/h (1 Bft) O-NO 58 0 min 0,000 mm 1,0 UV-I 213 W/m 20,0 C 23,1 C 11,3 km/h (2 Bft)
20.06.2013 08:35 23,2 C 83 % 1010,5 hPa 0,0 l/m 4,0 km/h (1 Bft) O-NO 64 5 min 0,000 mm 1,2 UV-I 329 W/m 20,1 C 23,2 C 12,9 km/h (3 Bft)
20.06.2013 08:40 23,6 C 82 % 1010,4 hPa 0,0 l/m 1,4 km/h (1 Bft) NO 55 5 min 0,000 mm 1,3 UV-I 345 W/m 20,3 C 23,6 C 6,4 km/h (2 Bft)
20.06.2013 08:45 23,9 C 82 % 1010,4 hPa 0,0 l/m 0,0 km/h (0 Bft) NO 55 5 min 0,000 mm 1,3 UV-I 338 W/m 20,6 C 23,9 C 1,6 km/h (1 Bft)
20.06.2013 08:50 24,3 C 80 % 1010,4 hPa 0,0 l/m 0,5 km/h (0 Bft) NO 47 5 min 0,000 mm 1,3 UV-I 353 W/m 20,6 C 24,3 C 1,6 km/h (1 Bft)
20.06.2013 08:55 24,8 C 79 % 1010,4 hPa 0,0 l/m 1,8 km/h (1 Bft) NO 55 0 min 0,000 mm 1,2 UV-I 244 W/m 20,9 C 24,8 C 8,0 km/h (2 Bft)
20.06.2013 09:00 25,1 C 77 % 1010,4 hPa 0,0 l/m 1,4 km/h (1 Bft) O-NO 78 0 min 0,000 mm 1,1 UV-I 244 W/m 20,8 C 25,1 C 6,4 km/h (2 Bft)
20.06.2013 09:05 25,0 C 76 % 1010,4 hPa 0,0 l/m 5,2 km/h (1 Bft) NO 54 0 min 0,152 mm 1,2 UV-I 243 W/m 20,5 C 25,0 C 12,9 km/h (3 Bft)
20.06.2013 09:10 24,8 C 77 % 1010,2 hPa 0,0 l/m 5,9 km/h (2 Bft) NO 46 0 min 0,000 mm 1,3 UV-I 255 W/m 20,5 C 24,8 C 14,5 km/h (3 Bft)
20.06.2013 09:15 24,6 C 77 % 1010,3 hPa 0,0 l/m 6,8 km/h (2 Bft) O-NO 58 0 min 0,000 mm 1,1 UV-I 207 W/m 20,3 C 24,5 C 14,5 km/h (3 Bft)
20.06.2013 09:20 24,3 C 79 % 1010,1 hPa 0,0 l/m 5,6 km/h (1 Bft) O-NO 57 0 min 0,000 mm 1,2 UV-I 223 W/m 20,4 C 24,3 C 16,1 km/h (3 Bft)
20.06.2013 09:25 24,2 C 79 % 1010,1 hPa 0,0 l/m 8,9 km/h (2 Bft) NO 51 0 min 0,000 mm 1,1 UV-I 199 W/m 20,3 C 23,5 C 17,7 km/h (3 Bft)
20.06.2013 09:30 24,1 C 80 % 1010,3 hPa 0,0 l/m 4,5 km/h (1 Bft) O-SO 109 0 min 0,000 mm 1,1 UV-I 204 W/m 20,4 C 24,1 C 11,3 km/h (2 Bft)
20.06.2013 09:35 24,0 C 80 % 1010,5 hPa 0,0 l/m 7,2 km/h (2 Bft) O-NO 57 0 min 0,000 mm 0,8 UV-I 144 W/m 20,3 C 23,8 C 16,1 km/h (3 Bft)
20.06.2013 09:40 23,9 C 80 % 1010,7 hPa 0,0 l/m 5,0 km/h (1 Bft) O-NO 65 0 min 0,000 mm 0,8 UV-I 139 W/m 20,2 C 23,9 C 14,5 km/h (3 Bft)
20.06.2013 09:45 23,7 C 81 % 1010,9 hPa 0,0 l/m 7,2 km/h (2 Bft) NO 56 0 min 0,000 mm 0,8 UV-I 148 W/m 20,2 C 23,5 C 12,9 km/h (3 Bft)
20.06.2013 09:50 23,7 C 81 % 1011,0 hPa 0,0 l/m 0,3 km/h (0 Bft) O-NO 58 0 min 0,000 mm 0,8 UV-I 139 W/m 20,2 C 23,7 C 6,4 km/h (2 Bft)
20.06.2013 09:55 23,7 C 81 % 1011,0 hPa 0,0 l/m 3,8 km/h (1 Bft) O-NO 63 0 min 0,000 mm 0,7 UV-I 114 W/m 20,2 C 23,7 C 12,9 km/h (3 Bft)
20.06.2013 10:00 23,6 C 82 % 1011,1 hPa 0,0 l/m 3,9 km/h (1 Bft) O 82 0 min 0,000 mm 0,8 UV-I 127 W/m 20,3 C 23,6 C 12,9 km/h (3 Bft)
20.06.2013 10:05 23,5 C 82 % 1011,1 hPa 0,0 l/m 2,5 km/h (1 Bft) O-NO 63 0 min 0,127 mm 0,8 UV-I 127 W/m 20,2 C 23,5 C 6,4 km/h (2 Bft)
20.06.2013 10:10 23,7 C 82 % 1011,1 hPa 0,0 l/m 1,2 km/h (1 Bft) NO 52 0 min 0,000 mm 0,8 UV-I 132 W/m 20,4 C 23,7 C 4,8 km/h (1 Bft)
20.06.2013 10:15 23,7 C 82 % 1011,1 hPa 0,0 l/m 0,1 km/h (0 Bft) NO 52 0 min 0,000 mm 0,8 UV-I 98 W/m 20,4 C 23,7 C 1,6 km/h (1 Bft)
20.06.2013 10:20 23,7 C 82 % 1010,9 hPa 0,0 l/m 0,0 km/h (0 Bft) NO 52 0 min 0,000 mm 0,8 UV-I 98 W/m 20,4 C 23,7 C 0,0 km/h (0 Bft)
20.06.2013 10:25 23,7 C 82 % 1010,7 hPa 0,0 l/m 0,0 km/h (0 Bft) NO 52 0 min 0,000 mm 0,8 UV-I 98 W/m 20,4 C 23,7 C 0,0 km/h (0 Bft)
20.06.2013 10:30 24,1 C 81 % 1010,7 hPa 0,0 l/m 0,2 km/h (0 Bft) O-NO 65 0 min 0,000 mm 1,3 UV-I 190 W/m 20,6 C 24,1 C 3,2 km/h (1 Bft)
20.06.2013 10:35 24,2 C 81 % 1010,5 hPa 0,0 l/m 0,1 km/h (0 Bft) O-NO 66 0 min 0,000 mm 1,4 UV-I 229 W/m 20,7 C 24,2 C 1,6 km/h (1 Bft)
20.06.2013 10:40 24,4 C 81 % 1010,4 hPa 0,0 l/m 0,1 km/h (0 Bft) O-NO 62 0 min 0,000 mm 1,6 UV-I 229 W/m 20,9 C 24,4 C 1,6 km/h (1 Bft)
20.06.2013 10:45 24,7 C 81 % 1010,3 hPa 0,0 l/m 0,1 km/h (0 Bft) O-NO 61 0 min 0,000 mm 1,7 UV-I 232 W/m 21,2 C 24,7 C 1,6 km/h (1 Bft)
20.06.2013 10:50 24,9 C 79 % 1010,1 hPa 0,0 l/m 0,3 km/h (0 Bft) O-NO 62 0 min 0,000 mm 1,8 UV-I 255 W/m 21,0 C 24,9 C 3,2 km/h (1 Bft)
20.06.2013 10:55 25,2 C 78 % 1009,9 hPa 0,0 l/m 0,0 km/h (0 Bft) O-NO 67 0 min 0,000 mm 1,4 UV-I 200 W/m 21,1 C 25,2 C 1,6 km/h (1 Bft)
20.06.2013 11:05 25,3 C 77 % 1010,1 hPa 0,0 l/m 0,0 km/h (0 Bft) O-NO 60 0 min 0,127 mm 1,1 UV-I 148 W/m 21,0 C 25,3 C 1,6 km/h (1 Bft)
20.06.2013 11:10 25,3 C 77 % 1010,1 hPa 0,0 l/m 0,1 km/h (0 Bft) O-NO 60 0 min 0,000 mm 1,1 UV-I 148 W/m 21,0 C 25,3 C 1,6 km/h (1 Bft)
20.06.2013 11:15 25,4 C 77 % 1010,1 hPa 0,0 l/m 0,1 km/h (0 Bft) O-NO 60 0 min 0,000 mm 1,5 UV-I 200 W/m 21,1 C 25,4 C 1,6 km/h (1 Bft)
20.06.2013 11:20 25,4 C 77 % 1009,9 hPa 0,0 l/m 0,0 km/h (0 Bft) O-NO 60 0 min 0,000 mm 1,9 UV-I 246 W/m 21,1 C 25,4 C 0,0 km/h (0 Bft)
20.06.2013 11:25 25,6 C 76 % 1009,9 hPa 0,0 l/m 0,3 km/h (0 Bft) O-NO 59 0 min 0,000 mm 2,3 UV-I 308 W/m 21,0 C 25,6 C 4,8 km/h (1 Bft)
20.06.2013 11:30 25,7 C 75 % 1009,8 hPa 0,0 l/m 0,5 km/h (0 Bft) O-SO 107 0 min 0,000 mm 2,2 UV-I 302 W/m 20,9 C 25,7 C 6,4 km/h (2 Bft)
20.06.2013 11:35 25,6 C 75 % 1009,8 hPa 0,0 l/m 3,0 km/h (1 Bft) O-NO 59 0 min 0,000 mm 2,5 UV-I 330 W/m 20,8 C 25,6 C 6,4 km/h (2 Bft)
20.06.2013 11:40 25,7 C 77 % 1009,8 hPa 0,0 l/m 0,7 km/h (0 Bft) O-NO 59 0 min 0,000 mm 1,9 UV-I 250 W/m 21,4 C 25,7 C 4,8 km/h (1 Bft)
20.06.2013 11:45 25,9 C 75 % 1009,9 hPa 0,0 l/m 0,0 km/h (0 Bft) O-NO 59 0 min 0,000 mm 1,8 UV-I 227 W/m 21,1 C 25,9 C 0,0 km/h (0 Bft)
20.06.2013 11:50 26,2 C 75 % 1009,9 hPa 0,0 l/m 0,1 km/h (0 Bft) O-NO 59 0 min 0,000 mm 2,2 UV-I 281 W/m 21,4 C 26,2 C 1,6 km/h (1 Bft)
20.06.2013 11:55 26,6 C 74 % 1009,9 hPa 0,0 l/m 0,1 km/h (0 Bft) O-NO 59 0 min 0,000 mm 2,1 UV-I 265 W/m 21,6 C 26,6 C 1,6 km/h (1 Bft)
20.06.2013 12:00 26,7 C 72 % 1009,9 hPa 0,0 l/m 0,0 km/h (0 Bft) O-NO 59 0 min 0,000 mm 2,3 UV-I 283 W/m 21,2 C 26,7 C 1,6 km/h (1 Bft)
20.06.2013 12:05 26,6 C 73 % 1009,9 hPa 0,0 l/m 0,7 km/h (0 Bft) O-NO 59 0 min 0,178 mm 2,9 UV-I 394 W/m 21,3 C 26,6 C 4,8 km/h (1 Bft)
20.06.2013 12:10 26,6 C 71 % 1009,9 hPa 0,0 l/m 1,7 km/h (1 Bft) O-NO 70 5 min 0,000 mm 3,5 UV-I 468 W/m 20,9 C 26,6 C 6,4 km/h (2 Bft)
20.06.2013 12:15 26,8 C 72 % 1010,0 hPa 0,0 l/m 0,2 km/h (0 Bft) O 81 5 min 0,000 mm 3,6 UV-I 469 W/m 21,3 C 26,8 C 3,2 km/h (1 Bft)
20.06.2013 12:20 27,3 C 71 % 1010,1 hPa 0,0 l/m 0,2 km/h (0 Bft) O-SO 119 0 min 0,000 mm 3,0 UV-I 399 W/m 21,6 C 27,3 C 1,6 km/h (1 Bft)
20.06.2013 12:25 27,3 C 70 % 1010,1 hPa 0,0 l/m 1,1 km/h (1 Bft) W-NW 300 0 min 0,000 mm 2,6 UV-I 346 W/m 21,3 C 27,3 C 4,8 km/h (1 Bft)
20.06.2013 12:30 27,4 C 69 % 1010,1 hPa 0,0 l/m 1,1 km/h (1 Bft) S-SW 211 5 min 0,000 mm 3,8 UV-I 512 W/m 21,2 C 27,4 C 3,2 km/h (1 Bft)
20.06.2013 12:35 27,2 C 70 % 1009,9 hPa 0,0 l/m 1,4 km/h (1 Bft) W 261 5 min 0,000 mm 5,0 UV-I 782 W/m 21,2 C 27,2 C 6,4 km/h (2 Bft)
20.06.2013 12:40 27,8 C 69 % 1009,9 hPa 0,0 l/m 1,4 km/h (1 Bft) O-SO 121 5 min 0,000 mm 4,9 UV-I 671 W/m 21,6 C 27,8 C 4,8 km/h (1 Bft)
20.06.2013 12:45 28,2 C 68 % 1010,0 hPa 0,0 l/m 7,0 km/h (2 Bft) O-NO 78 0 min 0,000 mm 4,5 UV-I 466 W/m 21,7 C 28,1 C 16,1 km/h (3 Bft)
20.06.2013 12:50 27,4 C 69 % 1010,2 hPa 0,0 l/m 3,3 km/h (1 Bft) O-SO 113 0 min 0,000 mm 2,3 UV-I 253 W/m 21,2 C 27,4 C 8,0 km/h (2 Bft)
20.06.2013 12:55 27,0 C 71 % 1010,5 hPa 0,0 l/m 3,2 km/h (1 Bft) S 180 0 min 0,000 mm 0,6 UV-I 76 W/m 21,3 C 27,0 C 11,3 km/h (2 Bft)
20.06.2013 13:05 26,6 C 72 % 1010,6 hPa 0,0 l/m 9,1 km/h (2 Bft) S 169 0 min 0,279 mm 0,0 UV-I 42 W/m 21,1 C 26,1 C 17,7 km/h (3 Bft)
20.06.2013 13:10 26,1 C 74 % 1010,8 hPa 0,0 l/m 10,0 km/h (2 Bft) SW 225 0 min 0,000 mm 0,0 UV-I 16 W/m 21,1 C 25,4 C 29,0 km/h (5 Bft)
20.06.2013 13:15 24,4 C 68 % 1011,1 hPa 0,0 l/m 20,8 km/h (4 Bft) W-SW 248 0 min 0,000 mm 0,0 UV-I 49 W/m 18,1 C 21,8 C 40,2 km/h (6 Bft)
20.06.2013 13:20 23,2 C 70 % 1011,5 hPa 0,0 l/m 18,5 km/h (3 Bft) SW 236 0 min 0,000 mm 0,9 UV-I 107 W/m 17,4 C 20,6 C 32,2 km/h (5 Bft)
20.06.2013 13:25 22,4 C 72 % 1011,4 hPa 0,0 l/m 15,5 km/h (3 Bft) SW 222 0 min 0,000 mm 0,7 UV-I 81 W/m 17,1 C 20,1 C 33,8 km/h (5 Bft)
20.06.2013 13:30 21,6 C 75 % 1011,2 hPa 0,0 l/m 17,3 km/h (3 Bft) SW 227 0 min 0,000 mm 0,8 UV-I 91 W/m 17,0 C 18,7 C 32,2 km/h (5 Bft)
20.06.2013 13:35 21,0 C 79 % 1011,0 hPa 0,0 l/m 11,5 km/h (2 Bft) W-SW 244 0 min 0,000 mm 1,8 UV-I 206 W/m 17,2 C 19,3 C 20,9 km/h (4 Bft)
20.06.2013 13:40 20,9 C 81 % 1011,1 hPa 0,0 l/m 8,6 km/h (2 Bft) W-NW 285 0 min 0,000 mm 3,2 UV-I 388 W/m 17,5 C 20,1 C 19,3 km/h (3 Bft)
20.06.2013 13:45 21,3 C 78 % 1010,9 hPa 0,0 l/m 7,7 km/h (2 Bft) W-NW 288 0 min 0,000 mm 4,0 UV-I 432 W/m 17,3 C 20,8 C 17,7 km/h (3 Bft)
20.06.2013 13:50 21,8 C 78 % 1010,9 hPa 0,0 l/m 8,0 km/h (2 Bft) W-SW 244 0 min 0,000 mm 4,1 UV-I 445 W/m 17,8 C 21,2 C 12,9 km/h (3 Bft)
20.06.2013 13:55 22,3 C 75 % 1011,2 hPa 0,0 l/m 10,3 km/h (2 Bft) W-NW 290 5 min 0,000 mm 5,7 UV-I 575 W/m 17,6 C 21,1 C 22,5 km/h (4 Bft)
20.06.2013 14:00 22,7 C 75 % 1011,3 hPa 0,0 l/m 9,3 km/h (2 Bft) W 279 5 min 0,000 mm 7,0 UV-I 991 W/m 18,0 C 21,8 C 17,7 km/h (3 Bft)
20.06.2013 14:05 23,3 C 73 % 1011,2 hPa 0,0 l/m 10,6 km/h (2 Bft) W-NW 286 0 min 0,254 mm 5,5 UV-I 473 W/m 18,2 C 22,1 C 16,1 km/h (3 Bft)
20.06.2013 14:10 23,6 C 71 % 1011,2 hPa 0,0 l/m 9,2 km/h (2 Bft) W-SW 241 0 min 0,000 mm 3,8 UV-I 457 W/m 18,0 C 22,8 C 17,7 km/h (3 Bft)
20.06.2013 14:15 23,2 C 71 % 1010,9 hPa 0,0 l/m 10,3 km/h (2 Bft) W-NW 288 5 min 0,000 mm 4,7 UV-I 729 W/m 17,6 C 22,1 C 20,9 km/h (4 Bft)
20.06.2013 14:20 23,7 C 72 % 1010,6 hPa 0,0 l/m 11,0 km/h (2 Bft) NW 319 5 min 0,000 mm 6,6 UV-I 1000 W/m 18,3 C 22,5 C 19,3 km/h (3 Bft)
20.06.2013 14:25 23,8 C 70 % 1010,2 hPa 0,0 l/m 12,2 km/h (2 Bft) W-NW 283 5 min 0,000 mm 6,7 UV-I 949 W/m 18,0 C 22,4 C 25,7 km/h (4 Bft)
20.06.2013 14:30 23,8 C 69 % 1010,0 hPa 0,0 l/m 9,7 km/h (2 Bft) NW 325 5 min 0,000 mm 6,5 UV-I 858 W/m 17,8 C 22,9 C 20,9 km/h (4 Bft)
20.06.2013 14:35 24,2 C 69 % 1010,0 hPa 0,0 l/m 11,1 km/h (2 Bft) W-NW 297 5 min 0,000 mm 6,7 UV-I 940 W/m 18,1 C 23,0 C 22,5 km/h (4 Bft)
20.06.2013 14:40 24,4 C 67 % 1010,1 hPa 0,0 l/m 12,7 km/h (3 Bft) W-NW 282 5 min 0,000 mm 6,6 UV-I 937 W/m 17,9 C 23,0 C 24,1 km/h (4 Bft)
20.06.2013 14:45 23,8 C 69 % 1010,3 hPa 0,0 l/m 12,9 km/h (3 Bft) W-NW 292 5 min 0,000 mm 4,4 UV-I 570 W/m 17,8 C 22,2 C 22,5 km/h (4 Bft)
20.06.2013 14:50 23,7 C 68 % 1010,5 hPa 0,0 l/m 12,9 km/h (3 Bft) W-NW 292 5 min 0,000 mm 4,2 UV-I 520 W/m 17,4 C 22,1 C 24,1 km/h (4 Bft)
20.06.2013 14:55 23,5 C 70 % 1010,5 hPa 0,0 l/m 11,3 km/h (2 Bft) W-NW 292 5 min 0,000 mm 4,0 UV-I 536 W/m 17,7 C 22,2 C 20,9 km/h (4 Bft)
20.06.2013 15:00 23,3 C 71 % 1010,6 hPa 0,0 l/m 11,3 km/h (2 Bft) W-NW 292 0 min 0,457 mm 2,7 UV-I 315 W/m 17,7 C 22,0 C 27,4 km/h (4 Bft)
20.06.2013 15:05 23,3 C 71 % 1010,5 hPa 0,0 l/m 6,4 km/h (2 Bft) W-NW 292 0 min 0,000 mm 2,4 UV-I 306 W/m 17,7 C 23,3 C 14,5 km/h (3 Bft)
20.06.2013 15:10 22,9 C 72 % 1010,5 hPa 0,0 l/m 9,7 km/h (2 Bft) W-NW 292 0 min 0,000 mm 3,1 UV-I 406 W/m 17,6 C 21,9 C 24,1 km/h (4 Bft)
20.06.2013 15:15 22,4 C 74 % 1010,7 hPa 0,0 l/m 12,9 km/h (3 Bft) W-NW 292 0 min 0,000 mm 3,0 UV-I 401 W/m 17,5 C 20,6 C 29,0 km/h (5 Bft)
20.06.2013 15:20 22,2 C 74 % 1010,9 hPa 0,0 l/m 9,7 km/h (2 Bft) W-NW 292 5 min 0,000 mm 3,5 UV-I 503 W/m 17,3 C 21,2 C 22,5 km/h (4 Bft)
20.06.2013 15:25 22,2 C 75 % 1010,9 hPa 0,0 l/m 11,3 km/h (2 Bft) W 270 0 min 0,000 mm 2,8 UV-I 396 W/m 17,5 C 20,7 C 17,7 km/h (3 Bft)
20.06.2013 15:30 22,1 C 75 % 1011,1 hPa 0,0 l/m 9,7 km/h (2 Bft) W 270 0 min 0,000 mm 2,9 UV-I 424 W/m 17,5 C 21,0 C 19,3 km/h (3 Bft)
20.06.2013 15:35 22,2 C 76 % 1011,0 hPa 0,0 l/m 6,4 km/h (2 Bft) NW 315 0 min 0,000 mm 2,2 UV-I 304 W/m 17,8 C 22,2 C 19,3 km/h (3 Bft)
20.06.2013 15:40 22,3 C 74 % 1010,9 hPa 0,0 l/m 8,0 km/h (2 Bft) W-NW 292 0 min 0,000 mm 2,2 UV-I 302 W/m 17,4 C 21,8 C 17,7 km/h (3 Bft)
20.06.2013 15:45 22,2 C 75 % 1010,8 hPa 0,0 l/m 9,7 km/h (2 Bft) W-NW 292 0 min 0,000 mm 2,4 UV-I 364 W/m 17,5 C 21,2 C 17,7 km/h (3 Bft)
20.06.2013 15:50 22,1 C 75 % 1010,6 hPa 0,0 l/m 6,4 km/h (2 Bft) W-NW 292 0 min 0,000 mm 1,8 UV-I 255 W/m 17,5 C 22,1 C 11,3 km/h (2 Bft)
20.06.2013 15:55 21,8 C 76 % 1010,5 hPa 0,0 l/m 8,0 km/h (2 Bft) W 270 0 min 0,000 mm 2,9 UV-I 401 W/m 17,4 C 21,2 C 19,3 km/h (3 Bft)
20.06.2013 16:00 22,0 C 76 % 1010,3 hPa 0,0 l/m 6,4 km/h (2 Bft) W-NW 292 5 min 0,229 mm 4,1 UV-I 417 W/m 17,6 C 22,0 C 14,5 km/h (3 Bft)
20.06.2013 16:05 22,3 C 74 % 1010,3 hPa 0,0 l/m 6,4 km/h (2 Bft) W-NW 292 5 min 0,000 mm 3,4 UV-I 446 W/m 17,4 C 22,3 C 14,5 km/h (3 Bft)
20.06.2013 16:10 22,4 C 75 % 1010,0 hPa 0,0 l/m 4,8 km/h (1 Bft) W-NW 292 5 min 0,000 mm 3,0 UV-I 431 W/m 17,7 C 22,4 C 14,5 km/h (3 Bft)
20.06.2013 16:15 22,3 C 75 % 1009,9 hPa 0,0 l/m 8,0 km/h (2 Bft) W-NW 292 0 min 0,000 mm 2,3 UV-I 330 W/m 17,6 C 21,8 C 14,5 km/h (3 Bft)
20.06.2013 16:20 22,7 C 74 % 1009,8 hPa 0,0 l/m 4,8 km/h (1 Bft) NW 315 0 min 0,000 mm 2,0 UV-I 306 W/m 17,8 C 22,7 C 14,5 km/h (3 Bft)
20.06.2013 16:25 22,6 C 74 % 1009,9 hPa 0,0 l/m 6,4 km/h (2 Bft) W-NW 292 0 min 0,000 mm 1,9 UV-I 294 W/m 17,7 C 22,6 C 16,1 km/h (3 Bft)
20.06.2013 16:30 22,1 C 75 % 1009,9 hPa 0,0 l/m 6,4 km/h (2 Bft) W-NW 292 0 min 0,000 mm 1,4 UV-I 209 W/m 17,5 C 22,1 C 14,5 km/h (3 Bft)
20.06.2013 16:35 21,6 C 77 % 1009,7 hPa 0,0 l/m 8,0 km/h (2 Bft) W 270 0 min 0,000 mm 1,4 UV-I 223 W/m 17,4 C 21,0 C 12,9 km/h (3 Bft)
20.06.2013 16:40 21,2 C 78 % 1009,7 hPa 0,0 l/m 9,7 km/h (2 Bft) W 270 0 min 0,000 mm 1,4 UV-I 221 W/m 17,2 C 20,1 C 14,5 km/h (3 Bft)
20.06.2013 16:45 21,0 C 79 % 1009,8 hPa 0,0 l/m 8,0 km/h (2 Bft) W 270 0 min 0,000 mm 1,5 UV-I 244 W/m 17,2 C 20,4 C 16,1 km/h (3 Bft)
20.06.2013 16:50 21,1 C 79 % 1010,0 hPa 0,0 l/m 8,0 km/h (2 Bft) W 270 0 min 0,000 mm 1,5 UV-I 223 W/m 17,3 C 20,5 C 14,5 km/h (3 Bft)
20.06.2013 16:55 21,0 C 79 % 1010,0 hPa 0,0 l/m 9,7 km/h (2 Bft) W 270 0 min 0,000 mm 1,4 UV-I 214 W/m 17,2 C 19,8 C 17,7 km/h (3 Bft)
20.06.2013 17:00 21,1 C 79 % 1010,2 hPa 0,0 l/m 6,4 km/h (2 Bft) W 270 0 min 0,178 mm 1,4 UV-I 223 W/m 17,3 C 21,1 C 12,9 km/h (3 Bft)
20.06.2013 17:05 21,3 C 78 % 1010,2 hPa 0,0 l/m 6,4 km/h (2 Bft) W-NW 292 0 min 0,000 mm 1,3 UV-I 220 W/m 17,3 C 21,3 C 12,9 km/h (3 Bft)
20.06.2013 17:10 21,2 C 79 % 1010,0 hPa 0,0 l/m 6,4 km/h (2 Bft) W-NW 292 0 min 0,000 mm 0,9 UV-I 163 W/m 17,4 C 21,2 C 12,9 km/h (3 Bft)
20.06.2013 17:15 21,2 C 79 % 1009,8 hPa 0,0 l/m 8,0 km/h (2 Bft) W-NW 292 0 min 0,000 mm 1,4 UV-I 251 W/m 17,4 C 20,6 C 16,1 km/h (3 Bft)
20.06.2013 17:20 21,2 C 78 % 1009,8 hPa 0,0 l/m 6,4 km/h (2 Bft) W-NW 292 0 min 0,000 mm 1,4 UV-I 236 W/m 17,2 C 21,2 C 16,1 km/h (3 Bft)
20.06.2013 17:25 21,0 C 79 % 1009,8 hPa 0,0 l/m 6,4 km/h (2 Bft) W 270 0 min 0,000 mm 1,1 UV-I 204 W/m 17,2 C 21,0 C 14,5 km/h (3 Bft)
20.06.2013 17:30 20,8 C 79 % 1009,9 hPa 0,0 l/m 8,0 km/h (2 Bft) W 270 0 min 0,000 mm 1,1 UV-I 195 W/m 17,0 C 20,2 C 14,5 km/h (3 Bft)
20.06.2013 17:35 20,5 C 79 % 1009,8 hPa 0,0 l/m 8,0 km/h (2 Bft) W 270 0 min 0,000 mm 0,9 UV-I 160 W/m 16,7 C 19,9 C 16,1 km/h (3 Bft)
20.06.2013 17:40 20,3 C 80 % 1009,8 hPa 0,0 l/m 6,4 km/h (2 Bft) W-NW 292 0 min 0,000 mm 0,7 UV-I 127 W/m 16,7 C 20,3 C 17,7 km/h (3 Bft)
20.06.2013 17:45 20,3 C 81 % 1009,8 hPa 0,0 l/m 8,0 km/h (2 Bft) W-NW 292 0 min 0,000 mm 0,7 UV-I 127 W/m 16,9 C 19,7 C 16,1 km/h (3 Bft)
20.06.2013 17:50 20,1 C 81 % 1009,8 hPa 0,0 l/m 6,4 km/h (2 Bft) W-NW 292 0 min 0,000 mm 0,8 UV-I 146 W/m 16,7 C 20,1 C 12,9 km/h (3 Bft)
20.06.2013 17:55 20,1 C 82 % 1009,8 hPa 0,0 l/m 6,4 km/h (2 Bft) W-NW 292 0 min 0,000 mm 0,8 UV-I 144 W/m 16,9 C 20,1 C 14,5 km/h (3 Bft)
20.06.2013 18:00 20,0 C 82 % 1009,9 hPa 0,0 l/m 6,4 km/h (2 Bft) W-NW 292 0 min 0,102 mm 0,7 UV-I 121 W/m 16,8 C 20,0 C 12,9 km/h (3 Bft)
20.06.2013 18:05 20,1 C 82 % 1010,1 hPa 0,0 l/m 4,8 km/h (1 Bft) W-NW 292 0 min 0,000 mm 0,5 UV-I 81 W/m 16,9 C 20,1 C 8,0 km/h (2 Bft)
20.06.2013 18:10 20,2 C 82 % 1010,4 hPa 0,0 l/m 1,6 km/h (1 Bft) NW 315 0 min 0,000 mm 0,0 UV-I 63 W/m 17,0 C 20,2 C 9,7 km/h (2 Bft)
20.06.2013 18:15 20,0 C 82 % 1010,4 hPa 0,0 l/m 4,8 km/h (1 Bft) NW 315 0 min 0,000 mm 0,0 UV-I 74 W/m 16,8 C 20,0 C 11,3 km/h (2 Bft)
20.06.2013 18:20 19,9 C 82 % 1010,4 hPa 0,0 l/m 1,6 km/h (1 Bft) NW 315 0 min 0,000 mm 0,0 UV-I 74 W/m 16,7 C 19,9 C 6,4 km/h (2 Bft)
20.06.2013 18:25 20,1 C 82 % 1010,3 hPa 0,0 l/m 0,0 km/h (0 Bft) NW 315 0 min 0,000 mm 0,0 UV-I 90 W/m 16,9 C 20,1 C 3,2 km/h (1 Bft)
20.06.2013 18:30 20,2 C 82 % 1010,2 hPa 0,0 l/m 1,6 km/h (1 Bft) NW 315 0 min 0,000 mm 0,6 UV-I 123 W/m 17,0 C 20,2 C 4,8 km/h (1 Bft)
20.06.2013 18:35 20,3 C 81 % 1010,4 hPa 0,0 l/m 1,6 km/h (1 Bft) NW 315 0 min 0,000 mm 0,5 UV-I 128 W/m 16,9 C 20,3 C 6,4 km/h (2 Bft)
20.06.2013 18:40 20,5 C 81 % 1010,5 hPa 0,0 l/m 0,0 km/h (0 Bft) NW 315 0 min 0,000 mm 0,5 UV-I 125 W/m 17,1 C 20,5 C 1,6 km/h (1 Bft)
20.06.2013 18:45 20,5 C 81 % 1010,6 hPa 0,0 l/m 1,6 km/h (1 Bft) NW 315 0 min 0,000 mm 0,5 UV-I 116 W/m 17,1 C 20,5 C 4,8 km/h (1 Bft)
20.06.2013 18:50 20,6 C 81 % 1010,6 hPa 0,0 l/m 0,0 km/h (0 Bft) NW 315 0 min 0,000 mm 0,5 UV-I 109 W/m 17,2 C 20,6 C 3,2 km/h (1 Bft)
20.06.2013 18:55 20,7 C 80 % 1010,7 hPa 0,0 l/m 0,0 km/h (0 Bft) NW 315 0 min 0,000 mm 0,0 UV-I 116 W/m 17,1 C 20,7 C 1,6 km/h (1 Bft)
20.06.2013 19:00 20,7 C 80 % 1010,6 hPa 0,0 l/m 0,0 km/h (0 Bft) NW 315 0 min 0,051 mm 0,5 UV-I 118 W/m 17,1 C 20,7 C 1,6 km/h (1 Bft)
20.06.2013 19:05 20,8 C 80 % 1010,8 hPa 0,0 l/m 0,0 km/h (0 Bft) N-NW 337 0 min 0,000 mm 0,0 UV-I 95 W/m 17,2 C 20,8 C 3,2 km/h (1 Bft)
20.06.2013 19:10 20,8 C 80 % 1010,9 hPa 0,0 l/m 0,0 km/h (0 Bft) W-SW 247 0 min 0,000 mm 0,0 UV-I 76 W/m 17,2 C 20,8 C 3,2 km/h (1 Bft)
20.06.2013 19:15 20,5 C 80 % 1010,8 hPa 0,0 l/m 3,2 km/h (1 Bft) W 270 0 min 0,000 mm 0,0 UV-I 58 W/m 16,9 C 20,5 C 8,0 km/h (2 Bft)
20.06.2013 19:20 20,2 C 81 % 1010,8 hPa 0,0 l/m 3,2 km/h (1 Bft) W 270 0 min 0,000 mm 0,0 UV-I 49 W/m 16,8 C 20,2 C 6,4 km/h (2 Bft)
20.06.2013 19:25 20,1 C 82 % 1010,8 hPa 0,0 l/m 1,6 km/h (1 Bft) W-NW 292 0 min 0,000 mm 0,0 UV-I 32 W/m 16,9 C 20,1 C 6,4 km/h (2 Bft)
20.06.2013 19:30 20,1 C 82 % 1010,8 hPa 0,0 l/m 1,6 km/h (1 Bft) NW 315 0 min 0,000 mm 0,0 UV-I 40 W/m 16,9 C 20,1 C 6,4 km/h (2 Bft)
20.06.2013 19:35 20,0 C 83 % 1010,7 hPa 0,0 l/m 1,6 km/h (1 Bft) NW 315 0 min 0,000 mm 0,0 UV-I 67 W/m 17,0 C 20,0 C 4,8 km/h (1 Bft)
20.06.2013 19:40 20,1 C 83 % 1010,5 hPa 0,0 l/m 1,6 km/h (1 Bft) SW 225 0 min 0,000 mm 0,0 UV-I 102 W/m 17,1 C 20,1 C 6,4 km/h (2 Bft)
20.06.2013 19:45 20,0 C 83 % 1010,4 hPa 0,0 l/m 3,2 km/h (1 Bft) W-SW 247 0 min 0,000 mm 0,0 UV-I 107 W/m 17,0 C 20,0 C 8,0 km/h (2 Bft)
20.06.2013 19:50 20,0 C 83 % 1010,3 hPa 0,0 l/m 3,2 km/h (1 Bft) W 270 0 min 0,000 mm 0,0 UV-I 90 W/m 17,0 C 20,0 C 6,4 km/h (2 Bft)
20.06.2013 19:55 20,0 C 83 % 1010,3 hPa 0,0 l/m 1,6 km/h (1 Bft) W-NW 292 0 min 0,000 mm 0,0 UV-I 72 W/m 17,0 C 20,0 C 4,8 km/h (1 Bft)
20.06.2013 20:00 19,9 C 83 % 1010,3 hPa 0,0 l/m 1,6 km/h (1 Bft) W 270 0 min 0,051 mm 0,0 UV-I 69 W/m 16,9 C 19,9 C 6,4 km/h (2 Bft)
20.06.2013 20:15 20,0 C 83 % 1010,1 hPa 0,0 l/m 0,7 km/h (0 Bft) W 259 0 min 0,000 mm 0,0 UV-I 72 W/m 17,0 C 20,0 C 3,2 km/h (1 Bft)
20.06.2013 20:20 20,1 C 83 % 1010,1 hPa 0,0 l/m 1,1 km/h (1 Bft) W 262 0 min 0,000 mm 0,0 UV-I 65 W/m 17,1 C 20,1 C 4,8 km/h (1 Bft)
20.06.2013 20:25 20,1 C 83 % 1010,0 hPa 0,0 l/m 2,1 km/h (1 Bft) W 278 0 min 0,000 mm 0,0 UV-I 65 W/m 17,1 C 20,1 C 4,8 km/h (1 Bft)
20.06.2013 20:30 20,1 C 83 % 1010,0 hPa 0,0 l/m 0,8 km/h (0 Bft) W 278 0 min 0,000 mm 0,0 UV-I 60 W/m 17,1 C 20,1 C 3,2 km/h (1 Bft)
20.06.2013 20:35 20,3 C 83 % 1009,6 hPa 0,0 l/m 0,0 km/h (0 Bft) W 278 0 min 0,000 mm 0,0 UV-I 65 W/m 17,3 C 20,3 C 1,6 km/h (1 Bft)
20.06.2013 20:40 20,4 C 82 % 1009,3 hPa 0,0 l/m 0,4 km/h (0 Bft) W 278 0 min 0,000 mm 0,0 UV-I 58 W/m 17,2 C 20,4 C 3,2 km/h (1 Bft)
20.06.2013 20:45 20,3 C 82 % 1009,1 hPa 0,0 l/m 0,4 km/h (0 Bft) W 278 0 min 0,000 mm 0,0 UV-I 56 W/m 17,1 C 20,3 C 3,2 km/h (1 Bft)
20.06.2013 20:50 20,3 C 82 % 1009,1 hPa 0,0 l/m 2,2 km/h (1 Bft) W-SW 238 0 min 0,000 mm 0,0 UV-I 49 W/m 17,1 C 20,3 C 6,4 km/h (2 Bft)
20.06.2013 20:55 20,1 C 83 % 1009,2 hPa 0,0 l/m 2,6 km/h (1 Bft) W-SW 239 0 min 0,000 mm 0,0 UV-I 47 W/m 17,1 C 20,1 C 4,8 km/h (1 Bft)
20.06.2013 21:00 19,9 C 83 % 1009,0 hPa 0,0 l/m 1,9 km/h (1 Bft) W-SW 249 0 min 0,000 mm 0,0 UV-I 39 W/m 16,9 C 19,9 C 6,4 km/h (2 Bft)
20.06.2013 21:05 19,8 C 84 % 1008,7 hPa 0,0 l/m 0,2 km/h (0 Bft) W-SW 249 0 min 0,050 mm 0,0 UV-I 33 W/m 17,0 C 19,8 C 1,6 km/h (1 Bft)
20.06.2013 21:10 19,7 C 84 % 1008,7 hPa 0,0 l/m 1,4 km/h (1 Bft) W-SW 254 5 min 0,000 mm 0,0 UV-I 33 W/m 16,9 C 19,7 C 4,8 km/h (1 Bft)
20.06.2013 21:15 19,7 C 84 % 1008,5 hPa 0,0 l/m 1,1 km/h (1 Bft) W 265 5 min 0,000 mm 0,0 UV-I 30 W/m 16,9 C 19,7 C 4,8 km/h (1 Bft)
20.06.2013 21:20 19,6 C 84 % 1008,6 hPa 0,0 l/m 0,1 km/h (0 Bft) W 265 5 min 0,000 mm 0,0 UV-I 25 W/m 16,8 C 19,6 C 1,6 km/h (1 Bft)
20.06.2013 21:25 19,7 C 84 % 1008,6 hPa 0,0 l/m 0,0 km/h (0 Bft) W 265 5 min 0,000 mm 0,0 UV-I 19 W/m 16,9 C 19,7 C 0,0 km/h (0 Bft)
20.06.2013 21:30 19,7 C 84 % 1008,5 hPa 0,0 l/m 0,0 km/h (0 Bft) W 265 0 min 0,000 mm 0,0 UV-I 14 W/m 16,9 C 19,7 C 0,0 km/h (0 Bft)
20.06.2013 21:35 19,7 C 84 % 1008,5 hPa 0,0 l/m 0,0 km/h (0 Bft) W 265 0 min 0,000 mm 0,0 UV-I 11 W/m 16,9 C 19,7 C 0,0 km/h (0 Bft)
20.06.2013 21:40 19,6 C 84 % 1008,6 hPa 0,0 l/m 0,0 km/h (0 Bft) W 265 0 min 0,000 mm 0,0 UV-I 7 W/m 16,8 C 19,6 C 0,0 km/h (0 Bft)
20.06.2013 21:45 19,6 C 83 % 1008,4 hPa 0,0 l/m 0,0 km/h (0 Bft) W 265 0 min 0,000 mm 0,0 UV-I 7 W/m 16,6 C 19,6 C 0,0 km/h (0 Bft)
20.06.2013 21:50 19,5 C 83 % 1008,4 hPa 0,0 l/m 0,0 km/h (0 Bft) W 265 0 min 0,000 mm 0,0 UV-I 5 W/m 16,5 C 19,5 C 1,6 km/h (1 Bft)
20.06.2013 21:55 19,4 C 84 % 1008,3 hPa 0,0 l/m 0,0 km/h (0 Bft) W 265 0 min 0,000 mm 0,0 UV-I 0 W/m 16,6 C 19,4 C 0,0 km/h (0 Bft)
20.06.2013 22:00 19,2 C 83 % 1008,4 hPa 0,0 l/m 0,0 km/h (0 Bft) W 265 0 min 0,000 mm 0,0 UV-I 0 W/m 16,2 C 19,2 C 0,0 km/h (0 Bft)
20.06.2013 22:05 19,1 C 84 % 1008,4 hPa 0,0 l/m 0,0 km/h (0 Bft) W 265 0 min 0,000 mm 0,0 UV-I 0 W/m 16,3 C 19,1 C 0,0 km/h (0 Bft)
20.06.2013 22:10 18,9 C 84 % 1008,7 hPa 0,0 l/m 0,0 km/h (0 Bft) W 265 0 min 0,000 mm 0,0 UV-I 0 W/m 16,1 C 18,9 C 0,0 km/h (0 Bft)
20.06.2013 22:15 18,8 C 85 % 1008,8 hPa 0,0 l/m 0,0 km/h (0 Bft) W 265 0 min 0,000 mm 0,0 UV-I 0 W/m 16,2 C 18,8 C 0,0 km/h (0 Bft)
20.06.2013 22:20 18,7 C 86 % 1008,6 hPa 0,0 l/m 0,0 km/h (0 Bft) W 265 0 min 0,000 mm 0,0 UV-I 0 W/m 16,3 C 18,7 C 0,0 km/h (0 Bft)
20.06.2013 22:25 18,5 C 87 % 1008,7 hPa 0,0 l/m 0,5 km/h (0 Bft) W 265 0 min 0,000 mm 0,0 UV-I 0 W/m 16,3 C 18,5 C 3,2 km/h (1 Bft)
20.06.2013 22:30 18,4 C 88 % 1008,9 hPa 0,0 l/m 3,0 km/h (1 Bft) W-NW 302 0 min 0,000 mm 0,0 UV-I 0 W/m 16,4 C 18,4 C 6,4 km/h (2 Bft)
20.06.2013 22:35 18,3 C 88 % 1008,9 hPa 0,0 l/m 1,9 km/h (1 Bft) W 275 0 min 0,000 mm 0,0 UV-I 0 W/m 16,3 C 18,3 C 6,4 km/h (2 Bft)
20.06.2013 22:40 18,2 C 89 % 1008,8 hPa 0,0 l/m 2,6 km/h (1 Bft) SW 224 0 min 0,000 mm 0,0 UV-I 0 W/m 16,4 C 18,2 C 6,4 km/h (2 Bft)
20.06.2013 22:45 18,1 C 89 % 1008,6 hPa 0,0 l/m 1,2 km/h (1 Bft) W 264 0 min 0,000 mm 0,0 UV-I 0 W/m 16,3 C 18,1 C 4,8 km/h (1 Bft)
20.06.2013 22:50 18,1 C 89 % 1008,7 hPa 0,0 l/m 0,0 km/h (0 Bft) W 264 0 min 0,000 mm 0,0 UV-I 0 W/m 16,3 C 18,1 C 1,6 km/h (1 Bft)
20.06.2013 22:55 18,1 C 89 % 1008,9 hPa 0,0 l/m 0,9 km/h (0 Bft) W-SW 244 0 min 0,000 mm 0,0 UV-I 0 W/m 16,3 C 18,1 C 4,8 km/h (1 Bft)
20.06.2013 23:00 18,1 C 90 % 1009,4 hPa 0,0 l/m 1,7 km/h (1 Bft) W-SW 246 0 min 0,000 mm 0,0 UV-I 0 W/m 16,4 C 18,1 C 6,4 km/h (2 Bft)
20.06.2013 23:05 18,1 C 90 % 1009,9 hPa 0,0 l/m 4,3 km/h (1 Bft) W-NW 294 0 min 0,000 mm 0,0 UV-I 0 W/m 16,4 C 18,1 C 11,3 km/h (2 Bft)
20.06.2013 23:10 18,1 C 90 % 1010,2 hPa 0,0 l/m 5,9 km/h (2 Bft) W 267 0 min 0,000 mm 0,0 UV-I 0 W/m 16,4 C 18,1 C 11,3 km/h (2 Bft)
20.06.2013 23:15 18,2 C 90 % 1010,3 hPa 0,0 l/m 4,6 km/h (1 Bft) W 279 0 min 0,000 mm 0,0 UV-I 0 W/m 16,5 C 18,2 C 11,3 km/h (2 Bft)
20.06.2013 23:20 18,3 C 89 % 1010,2 hPa 0,0 l/m 2,2 km/h (1 Bft) W-NW 298 0 min 0,000 mm 0,0 UV-I 0 W/m 16,5 C 18,3 C 6,4 km/h (2 Bft)
20.06.2013 23:25 18,4 C 89 % 1010,1 hPa 0,0 l/m 4,4 km/h (1 Bft) W 271 0 min 0,000 mm 0,0 UV-I 0 W/m 16,6 C 18,4 C 11,3 km/h (2 Bft)
20.06.2013 23:30 18,7 C 87 % 1010,1 hPa 0,0 l/m 6,7 km/h (2 Bft) S-SW 193 0 min 0,000 mm 0,0 UV-I 0 W/m 16,5 C 18,6 C 14,5 km/h (3 Bft)
20.06.2013 23:35 18,7 C 87 % 1010,2 hPa 0,4 l/m 11,6 km/h (2 Bft) SW 232 0 min 0,000 mm 0,0 UV-I 0 W/m 16,5 C 16,7 C 24,1 km/h (4 Bft)
20.06.2013 23:40 18,1 C 84 % 1010,3 hPa 0,2 l/m 15,9 km/h (3 Bft) W 268 0 min 0,000 mm 0,0 UV-I 0 W/m 15,4 C 14,7 C 29,0 km/h (5 Bft)
20.06.2013 23:45 17,6 C 85 % 1010,3 hPa 0,2 l/m 16,2 km/h (3 Bft) W 278 0 min 0,000 mm 0,0 UV-I 0 W/m 15,0 C 14,0 C 32,2 km/h (5 Bft)
20.06.2013 23:50 17,3 C 86 % 1010,3 hPa 0,0 l/m 14,6 km/h (3 Bft) W-NW 288 0 min 0,000 mm 0,0 UV-I 0 W/m 14,9 C 14,1 C 32,2 km/h (5 Bft)
20.06.2013 23:55 17,1 C 85 % 1010,2 hPa 0,2 l/m 14,0 km/h (3 Bft) W-NW 284 0 min 0,000 mm 0,0 UV-I 0 W/m 14,6 C 14,0 C 30,6 km/h (5 Bft)
_ Min-Zeit 23:55 14:40 21:55 - 00:00 - - - - - - 23:55 23:45 00:00
Minimum _ 17,1 C 67 % 1008,3 hPa - 0,0 km/h (0 Bft) - - - - - - 14,6 C 14,0 C 0,0 km/h (0 Bft)
_ Max-Zeit 12:45 05:55 13:20 23:35 13:15 - - 07:10 15:00 14:00 14:20 12:45 12:45 13:15
Maximum _ 28,3 C 91 % 1011,5 hPa 0,4 l/m 20,8 km/h
W-SW (4 Bft)
- - 5 min 0,457 mm 7,0 UV-I 1000 W/m 21,7 C 28,1 C 40,2 km/h
W (6 Bft)
Durchschnitt _ 22,2 C 82 % 1010,0 hPa #1,0 l/m 4,0 km/h (1 Bft) W-NW - #2:25 h #2,464 mm 2,1 UV-I 210 W/m 18,9 C 22,0 C 9,2 km/h (2 Bft)